[[{"header":{"parameterUnit":"m.s-1","parameterCategory":1,"la1":30.2991,"la2":30.254,"lo1":-89.0895,"lo2":-89.0444,"dy":0.0017,"dx":0.0017,"nx":28,"ny":28,"refTime":"2025-01-25T09:00:00:Z","depth":0,"parameterNumber":2,"parameterNumberName":"U-component_of_WINDS"},"data":[0,0,0,0,0,0,0,0,0,0,0,0,0,0,0,0,0,0,0,0,0,0,0,0,0,0,0,0,0,0,0,0,0,0,0,0,0,0,0,0,0,0,0,0,0,0,0,0,0,0,0,0,0,0,0,0,0,0,0.6585,0.6585,0,0.6559,0.6558,0.6558,0.6516,0.6516,0.6515,0.6514,0.6488,0.6488,0.6488,0,0,0,0,0,0,0,0,0,0,0,0,0,0.6601,0.6601,0.6585,0.6585,0.6584,0.6559,0.6558,0.6558,0.6516,0.6516,0.6515,0.6514,0.6488,0.6488,0.6488,0,0,0,0,0,0,0,0,0,0,0,0,0,0.6586,0.6601,0.6585,0.6561,0.6558,0.6559,0.6558,0.6558,0.6517,0.6515,0.6514,0.6513,0.6488,0.6488,0.6488,0.6511,0,0,0.6488,0.6488,0,0,0,0,0,0,0,0,0.6587,0.6586,0.6565,0.6562,0.6559,0.654,0.6554,0.6542,0.6517,0.6532,0.6514,0.6513,0.6506,0.6505,0.6502,0.651,0.6509,0.6488,0.6488,0.6488,0.6488,0,0,0,0,0,0,0,0.6588,0.6586,0.6575,0.6564,0.6561,0.6551,0.6548,0.6552,0.6526,0.6531,0.6528,0.6525,0.6505,0.6502,0.6501,0.6508,0.6488,0.6488,0.6488,0.6488,0.6534,0.6535,0,0,0,0,0,0,0.6593,0.6588,0.6575,0.6574,0.6571,0.6552,0.6548,0.6547,0.6526,0.6521,0.6526,0.6523,0.6503,0.6501,0.65,0.6526,0.6488,0.6488,0.6488,0.6533,0.6534,0.6536,0,0,0,0,0,0,0.6593,0.6592,0.6577,0.658,0.6577,0.6553,0.6552,0.6547,0.6545,0.6522,0.6518,0.6529,0.6502,0.65,0.6509,0.6525,0.6488,0.6488,0.6531,0.6533,0.6535,0.6578,0,0,0,0,0,0,0.6594,0.6592,0.66,0.658,0.6577,0.6585,0.6553,0.6548,0.6545,0.6541,0.6523,0.6519,0.6501,0.6509,0.6509,0.6524,0.6488,0.653,0.6532,0.6534,0.6575,0.6581,0.6586,0,0,0,0,0,0.6594,0.6614,0.6601,0.66,0.6587,0.6586,0.6584,0.6563,0.6546,0.6555,0.654,0.652,0.6523,0.651,0.651,0.6525,0.6529,0.6531,0.6534,0.6572,0.658,0.6586,0,0,0,0,0,0,0.6636,0.6611,0.6596,0.661,0.66,0.6579,0.6589,0.6571,0.6566,0.6563,0.6536,0.6533,0.6545,0.6536,0.6522,0.6546,0.6523,0.6525,0.6552,0.6559,0.6564,0.6566,0.6488,0,0,0,0,0,0.6647,0.6649,0.6626,0.664,0.6636,0.6613,0.6612,0.6596,0.6586,0.6582,0.6568,0.6559,0.6558,0.6558,0.6555,0.6573,0.6569,0.6584,0.6589,0.6594,0.6597,0.6606,0.6613,0.6544,0.6544,0.6544,0,0,0.667,0.6656,0.6658,0.6648,0.6639,0.6642,0.661,0.6614,0.6616,0.6582,0.659,0.6579,0.6568,0.6581,0.6586,0.6574,0.6615,0.6598,0.6601,0.6602,0.661,0.6616,0.6622,0.6546,0.6546,0.6546,0,0,0.6712,0.6701,0.6712,0.6703,0.669,0.6675,0.6678,0.6659,0.6651,0.6658,0.6633,0.6635,0.6633,0.6626,0.6622,0.6662,0.6644,0.6662,0.6692,0.6701,0.6707,0.6711,0.6726,0.6732,0.6665,0.6665,0.6665,0,0.6741,0.6744,0.672,0.6725,0.6722,0.6691,0.6702,0.6696,0.6683,0.6681,0.6667,0.6665,0.6655,0.6667,0.6677,0.6674,0.6677,0.6664,0.6708,0.6712,0.6716,0.673,0.6736,0.6668,0.6667,0.6667,0.6667,0,0.6781,0.6783,0.6793,0.6781,0.6779,0.6787,0.6765,0.6766,0.675,0.6737,0.6745,0.6731,0.6726,0.6728,0.6712,0.6737,0.673,0.6712,0.6688,0.6725,0.6738,0.6743,0.6671,0.667,0.667,0.6669,0,0,0.6848,0.6823,0.6828,0.6822,0.6806,0.6807,0.6814,0.6809,0.681,0.6802,0.6808,0.6808,0.6792,0.6787,0.6771,0.6779,0.6813,0.6761,0.676,0.6771,0.684,0.6854,0.6861,0.68,0.6801,0.6802,0.6842,0,0.6887,0.6898,0.6877,0.6893,0.6895,0.6866,0.6873,0.6864,0.6851,0.6852,0.6838,0.6839,0.6817,0.6814,0.6821,0.6807,0.6826,0.6804,0.6806,0.6806,0.681,0.6867,0.6881,0.692,0.6846,0.6847,0.6848,0,0.6934,0.6929,0.6945,0.6928,0.6928,0.6934,0.6928,0.6928,0.6918,0.6908,0.6904,0.6885,0.6891,0.6868,0.6876,0.6862,0.6861,0.6855,0.6856,0.6855,0.6829,0.6869,0.6931,0.6937,0.6855,0.6854,0.6854,0,0.6983,0.6979,0.6989,0.6985,0.6965,0.697,0.6962,0.695,0.6949,0.6943,0.6942,0.6938,0.6936,0.6933,0.6914,0.6898,0.6925,0.69,0.6918,0.6919,0.6925,0.6925,0.6989,0.6924,0.6924,0.6924,0.6924,0,0.7029,0.704,0.701,0.7016,0.7028,0.7004,0.7016,0.7005,0.6995,0.6999,0.6974,0.6978,0.6952,0.6953,0.6938,0.6948,0.6947,0.694,0.6936,0.6943,0.6944,0.6942,0.6939,0.6926,0.6925,0.6925,0.6925,0,0.7085,0.7065,0.7073,0.7054,0.705,0.7059,0.7043,0.7048,0.7034,0.7039,0.7039,0.7018,0.7018,0.6999,0.6995,0.6985,0.7002,0.6992,0.7005,0.7002,0.7022,0.7021,0.7087,0.7095,0.7026,0.7026,0.7027,0,0.7115,0.7123,0.7105,0.7105,0.7099,0.71,0.7098,0.7075,0.7074,0.7063,0.707,0.7068,0.7065,0.7068,0.7052,0.7049,0.704,0.7064,0.704,0.7046,0.7041,0.7041,0.7042,0.7069,0.707,0.7071,0.7071,0,0.7172,0.7162,0.716,0.7156,0.7154,0.715,0.7143,0.7145,0.712,0.7121,0.7121,0.7119,0.7115,0.7114,0.7109,0.7101,0.7082,0.7079,0.7083,0.709,0.7097,0.7094,0.7019,0.7078,0.7077,0.7076,0.7076,0.7076,0.7216,0.7222,0.7211,0.721,0.7203,0.7197,0.7201,0.7188,0.7188,0.7183,0.7169,0.7172,0.7162,0.7152,0.7146,0.7148,0.7137,0.7143,0.7144,0.7146,0.715,0.7097,0.7147,0.7147,0.7147,0.7147,0.7147,0,0.7272,0.7263,0.7263,0.7255,0.7254,0.7237,0.7229,0.723,0.7232,0.7224,0.7222,0.7223,0.7222,0.7207,0.7204,0.7208,0.72,0.7209,0.7208,0.7207,0.716,0.7157,0.7216,0.7216,0.7216,0.7216,0.7216,0.7215,0.7301,0.731,0.7299,0.7305,0.7296,0.7298,0.7295,0.7291,0.7284,0.7286,0.7285,0.7275,0.7264,0.7261,0.7259,0.7255,0.7255,0.7267,0.726,0.7217,0.721,0.7204,0.72,0.7267,0.7267,0.7306,0.7306,0.7306]},{"header":{"parameterUnit":"m.s-1","parameterCategory":1,"la1":30.2991,"la2":30.254,"lo1":-89.0895,"lo2":-89.0444,"dy":0.0017,"dx":0.0017,"nx":28,"ny":28,"refTime":"2025-01-25T09:00:00:Z","depth":0,"parameterNumber":3,"parameterNumberName":"V-component_of_WINDS"},"data":[0,0,0,0,0,0,0,0,0,0,0,0,0,0,0,0,0,0,0,0,0,0,0,0,0,0,0,0,0,0,0,0,0,0,0,0,0,0,0,0,0,0,0,0,0,0,0,0,0,0,0,0,0,0,0,0,0,0,2.7437,2.7437,0,2.7497,2.7498,2.7499,2.7501,2.7501,2.75,2.7499,2.7563,2.7565,2.7568,0,0,0,0,0,0,0,0,0,0,0,0,0,2.7324,2.7326,2.7436,2.7437,2.7438,2.7497,2.7498,2.7499,2.7502,2.7501,2.75,2.7499,2.7562,2.7565,2.7568,0,0,0,0,0,0,0,0,0,0,0,0,0,2.7378,2.7327,2.7436,2.7446,2.7448,2.7497,2.7498,2.7499,2.7502,2.7501,2.75,2.7499,2.7561,2.7565,2.7568,2.7612,0,0,2.7579,2.7581,0,0,0,0,0,0,0,0,2.7375,2.7382,2.7444,2.7446,2.7448,2.7491,2.7482,2.7537,2.7502,2.7481,2.7499,2.7498,2.754,2.7545,2.7559,2.7615,2.7618,2.758,2.7582,2.7583,2.7584,0,0,0,0,0,0,0,2.7371,2.7379,2.7461,2.7445,2.7447,2.7448,2.7455,2.7492,2.7516,2.7483,2.7483,2.7491,2.7541,2.7556,2.7561,2.7618,2.7579,2.7583,2.7585,2.7586,2.7714,2.7715,0,0,0,0,0,0,2.7365,2.7376,2.7459,2.7462,2.7408,2.7451,2.7458,2.7478,2.7516,2.752,2.7491,2.749,2.755,2.7556,2.7563,2.7617,2.7583,2.7586,2.7589,2.7712,2.7714,2.7715,0,0,0,0,0,0,2.7363,2.7373,2.7456,2.7419,2.743,2.7454,2.7476,2.748,2.7495,2.7522,2.7526,2.7502,2.7549,2.7558,2.76,2.7619,2.7588,2.7591,2.7711,2.7713,2.7715,2.7725,0,0,0,0,0,0,2.736,2.7372,2.7388,2.742,2.7432,2.7492,2.7477,2.7482,2.7501,2.75,2.7533,2.7538,2.7549,2.7594,2.7603,2.7624,2.7594,2.7709,2.7712,2.7714,2.7723,2.7727,2.7731,0,0,0,0,0,2.7356,2.7389,2.7389,2.7399,2.7453,2.7493,2.75,2.7512,2.7502,2.7519,2.7537,2.7537,2.7615,2.7599,2.7609,2.763,2.7708,2.7711,2.7714,2.7722,2.7727,2.7731,0,0,0,0,0,0,2.7359,2.7393,2.7394,2.7438,2.7462,2.7493,2.7515,2.7517,2.7545,2.7543,2.7558,2.7565,2.7607,2.7623,2.7603,2.7675,2.7661,2.7666,2.7663,2.7668,2.7672,2.7668,2.7597,0,0,0,0,0,2.7365,2.7394,2.7422,2.7459,2.7471,2.7491,2.7509,2.7516,2.7542,2.7552,2.7573,2.7599,2.7629,2.7649,2.7679,2.7725,2.7733,2.7745,2.7749,2.7751,2.7756,2.7783,2.7789,2.7725,2.7725,2.7725,0,0,2.7378,2.74,2.7418,2.746,2.748,2.751,2.75,2.7532,2.7555,2.7558,2.7599,2.7614,2.7644,2.7688,2.7709,2.7703,2.7775,2.7755,2.7757,2.776,2.7786,2.7792,2.7798,2.7727,2.7726,2.7726,0,0,2.7417,2.7436,2.7469,2.7489,2.7519,2.7532,2.754,2.757,2.7581,2.7622,2.7625,2.7652,2.7704,2.7726,2.7743,2.779,2.7791,2.7799,2.7819,2.7845,2.785,2.7854,2.7872,2.7878,2.7803,2.7803,2.7803,0,2.743,2.7475,2.7486,2.7519,2.7538,2.7541,2.7575,2.7593,2.7632,2.7645,2.7637,2.7703,2.7723,2.7773,2.7784,2.7798,2.7808,2.7796,2.7848,2.7853,2.7857,2.7874,2.7881,2.7804,2.7804,2.7804,2.7804,0,2.7489,2.7521,2.7544,2.758,2.7602,2.7635,2.7651,2.7672,2.7677,2.7691,2.7733,2.7757,2.7792,2.7804,2.7809,2.7855,2.785,2.7845,2.7831,2.7864,2.788,2.7887,2.7805,2.7805,2.7805,2.7805,0,0,2.7534,2.7576,2.7584,2.7601,2.7634,2.7659,2.7692,2.7725,2.7743,2.7769,2.7798,2.7842,2.7837,2.7857,2.7865,2.7887,2.7924,2.788,2.788,2.7888,2.7977,2.7982,2.7989,2.7924,2.7926,2.7927,2.7975,0,2.7578,2.7637,2.7647,2.7699,2.7729,2.7732,2.7761,2.7784,2.7798,2.7826,2.7841,2.7872,2.7863,2.7875,2.7897,2.7915,2.7942,2.7911,2.7953,2.7954,2.7947,2.7998,2.8003,2.8047,2.7981,2.7982,2.7983,0,2.7637,2.7664,2.7719,2.7748,2.7761,2.7787,2.7819,2.7844,2.7871,2.788,2.7902,2.7907,2.7942,2.7926,2.7975,2.7954,2.7971,2.7982,2.7984,2.799,2.7972,2.8006,2.8061,2.8069,2.7993,2.7992,2.7992,0,2.7665,2.7716,2.7755,2.7769,2.7804,2.7822,2.7838,2.7863,2.7883,2.7911,2.7924,2.7955,2.7973,2.7998,2.8012,2.7998,2.806,2.8045,2.8069,2.8069,2.8084,2.8083,2.8144,2.8092,2.8092,2.8092,2.8092,0,2.7714,2.7748,2.7768,2.7793,2.7831,2.7843,2.788,2.7895,2.7918,2.7946,2.795,2.7976,2.7992,2.8021,2.8031,2.8071,2.8079,2.8088,2.809,2.8088,2.8087,2.8101,2.8099,2.8094,2.8093,2.8093,2.8093,0,2.7753,2.7768,2.7812,2.7841,2.7849,2.7876,2.7901,2.7925,2.7938,2.7973,2.7982,2.8003,2.8037,2.8053,2.8095,2.8102,2.8148,2.8148,2.8139,2.814,2.8165,2.8163,2.8238,2.8249,2.8188,2.8189,2.8189,0,2.7784,2.781,2.7842,2.7861,2.7876,2.7906,2.7926,2.7939,2.796,2.7992,2.8013,2.8046,2.8074,2.8128,2.8148,2.818,2.8182,2.8206,2.8187,2.8184,2.8184,2.8183,2.8186,2.821,2.8211,2.8211,2.8211,0,2.7838,2.7844,2.7872,2.7903,2.7927,2.7952,2.7977,2.7992,2.8009,2.8032,2.8066,2.8088,2.813,2.8164,2.8198,2.8214,2.8216,2.8217,2.8225,2.8224,2.8218,2.8223,2.815,2.8216,2.8215,2.8215,2.8215,2.8215,2.7875,2.7898,2.7924,2.7956,2.7976,2.7999,2.8023,2.8039,2.8068,2.8103,2.8109,2.8146,2.8172,2.8217,2.8235,2.8264,2.8259,2.827,2.8273,2.8276,2.8278,2.8212,2.827,2.827,2.827,2.827,2.827,0,2.7929,2.7946,2.7975,2.801,2.8035,2.8033,2.806,2.8082,2.8114,2.8138,2.8165,2.8205,2.8238,2.826,2.8293,2.8313,2.8315,2.8321,2.8321,2.8325,2.828,2.8271,2.8319,2.8319,2.8319,2.8319,2.8319,2.8319,2.7961,2.8001,2.801,2.806,2.8077,2.8113,2.8129,2.815,2.817,2.8214,2.8241,2.8255,2.8278,2.8314,2.8344,2.8349,2.8362,2.8369,2.8375,2.8333,2.8328,2.8323,2.8314,2.8372,2.8372,2.8418,2.8418,2.8418]}]]